Olympia, WA
on Sunday, November 11, 2012

Sunday
Previous Day Next Day
Daily Summary
 ActualAverageRecord
Temperature
Mean Temperature °F 44°F  
Max Temperature 47°F 51°F 64°F (1990)
Min Temperature 27°F 37°F 18°F (1985)
Degree Days
Heating Degree Days 28 21  
Month to date heating degree days 204 215  
Since 1 July heating degree days 982 1009  
Cooling Degree Days 0 0  
Month to date cooling degree days 0 0  
Year to date cooling degree days 82 106  
Moisture
Dew Point 37°F   
Average Humidity 93    
Maximum Humidity 100    
Minimum Humidity 86    
Precipitation
Precipitation 0.76 in 0.29 in 1.81 in (1958)
Month to date precipitation 2.02 2.87  
Year to date precipitation 42.72 36.78  
Wind
Wind Speed 5 mph   
Max Wind Speed 22 mph   
Max Gust Speed 29 mph   
Visibility 5 miles   
Events Rain   

Key: T is trace of precipitation, MM is missing value
Source: NWS Daily Summary
Time(PST)TemperatureDew PointHumidity Pressure Visibility Wind DirectionWind SpeedGust SpeedPrecipitationEvents Conditions
12:54 AM 28.0°F 26.1°F 92% 30.23 in 4.0 miles Calm Calm - N/A   Clear
1:14 AM 28.4°F 26.6°F 93% 30.23 in 4.0 miles Calm Calm - N/A   Mostly Cloudy
1:54 AM 30.0°F 28.0°F 92% 30.25 in 4.0 miles Calm Calm - N/A   Overcast
2:54 AM 30.0°F 28.9°F 96% 30.24 in 4.0 miles Calm Calm - N/A   Overcast
3:01 AM 30.2°F 28.4°F 93% 30.22 in 4.0 miles Calm Calm - N/A   Overcast
3:18 AM 30.2°F 28.4°F 93% 30.22 in 4.0 miles Calm Calm - N/A   Overcast
3:54 AM 30.9°F 28.9°F 92% 30.23 in 4.0 miles Calm Calm - N/A   Overcast
4:54 AM 32.0°F 30.0°F 92% 30.22 in 4.0 miles Calm Calm - N/A   Overcast
5:54 AM 32.0°F 30.9°F 96% 30.22 in 5.0 miles Calm Calm - N/A   Overcast
6:54 AM 33.1°F 32.0°F 96% 30.22 in 5.0 miles Calm Calm - N/A   Overcast
7:54 AM 34.0°F 33.1°F 96% 30.22 in 4.0 miles Calm Calm - 0.00 in   Overcast
8:54 AM 35.1°F 34.0°F 96% 30.23 in 10.0 miles Calm Calm - 0.01 in Rain Light Rain
9:54 AM 37.4°F 35.6°F 93% 30.22 in 5.0 miles Calm Calm - N/A Rain Light Rain
10:54 AM 39.9°F 37.9°F 93% 30.23 in 5.0 miles Calm Calm - 0.01 in Rain Light Rain
11:54 AM 43.0°F 41.0°F 93% 30.21 in 4.0 miles SSW 4.6 mph - 0.02 in Rain Light Rain
12:54 PM 44.1°F 41.0°F 89% 30.19 in 4.0 miles South 8.1 mph - 0.04 in Rain Light Rain
1:54 PM 44.1°F 41.0°F 89% 30.18 in 4.0 miles South 9.2 mph - 0.06 in Rain Light Rain
2:54 PM 44.1°F 41.0°F 89% 30.16 in 4.0 miles South 4.6 mph - 0.10 in Rain Light Rain
3:54 PM 44.1°F 42.1°F 93% 30.14 in 3.0 miles SSW 5.8 mph - 0.09 in Rain Light Rain
4:35 PM 44.6°F 41.0°F 87% 30.12 in 4.0 miles SSW 5.8 mph - 0.05 in Rain Light Rain
4:54 PM 44.1°F 42.1°F 93% 30.13 in 5.0 miles SSW 5.8 mph - 0.08 in Rain Light Rain
5:54 PM 44.1°F 42.1°F 93% 30.11 in 5.0 miles South 9.2 mph - 0.07 in Rain Light Rain
6:54 PM 45.0°F 42.1°F 90% 30.09 in 10.0 miles South 12.7 mph 24.2 mph 0.03 in Rain Light Rain
7:54 PM 46.0°F 42.1°F 86% 30.08 in 10.0 miles SSW 12.7 mph 19.6 mph 0.02 in Rain Light Rain
8:21 PM 44.6°F 42.8°F 93% 30.07 in 5.0 miles SSW 15.0 mph 24.2 mph 0.03 in Rain Rain
8:54 PM 45.0°F 43.0°F 93% 30.08 in 4.0 miles SSW 13.8 mph - 0.09 in Rain Rain
9:54 PM 45.0°F 43.0°F 93% 30.08 in 4.0 miles South 6.9 mph 20.7 mph 0.11 in Rain Rain
10:54 PM 46.0°F 43.0°F 89% 30.08 in 10.0 miles SSW 13.8 mph 21.9 mph 0.02 in Rain Light Rain
11:54 PM 46.9°F 44.1°F 90% 30.06 in 10.0 miles SSW 16.1 mph 26.5 mph 0.00 in   Overcast
Moon Phase
Nov. 11 Nov. 13 Nov. 20 Nov. 28 Dec. 06
Sunrise:07:09 AM (PST) Moon Rise:04:22 AM (PST)11/11
Sunset:04:40 PM (PST) Moon Set:03:13 PM (PST)11/11

Copyright © 2014 The Weather Underground, Inc.